Find WHDW 19-08

NORAD ID: 67529 Int'l Des: 2026-013 Owner: ZXW Country: CN Constellation: xingwang operational
LEOCIRCULAR

Live Position

Loading 3D Globe...

About WHDW 19-08

Description loading...

Upcoming Passes

Passes for default location (London). Set your location on the main map for personalized predictions.

Altitude History

Loading altitude history...

Two-Line Element Set

1 67529U 26013H 26109.53576498 -.00000065 00000-0 12776-3 0 9994
2 67529 50.0034 205.6882 0000430 256.1731 103.9093 13.29325341 12243
Epoch: Apr 19, 2026 • Age: 8 hours

Current Status

Altitude 1157.5 km
Velocity 7.27 km/s
Sub-Earth Point -28.94°S, 113.63°W
Launch Date Jan 19, 2026
Age 0.2 years
Type other

Technical Details

Classification Payload
Mass 800.00 kg
Dry Mass 800.00 kg
Total Mass 800.00 kg
Length 3.00 m
Diameter 1.00 m
Span 10.00 m
Shape Box + 2 Pan
Manufacturer YINNT
Bus Type Xingwang Y
Phase Status In Orbit
Owner/State ZXW/CN

Most Searched